Freeport, IL

1:04 PM CDT on August 22, 2017 (GMT -0500)
Albertus

Weather History for KFEP - May, 2014

Change the Weather History Date:

Sunday, May 11, 2014

  Actual Average Record
Temperature  
Mean Temperature 63 °F -  
Max Temperature 77 °F 73 °F 89 °F (2011)
Min Temperature 50 °F 47 °F 31 °F (1981)
Degree Days  
Heating Degree Days 2    
Growing Degree Days 13 (Base 50)    
Moisture  
Dew Point 56 °F    
Average Humidity 76    
Maximum Humidity 94    
Minimum Humidity 59    
Precipitation  
Precipitation 0.11 in - - ()
Sea Level Pressure  
Sea Level Pressure 29.91 in    
Wind  
Wind Speed 8 mph (SSE)    
Max Wind Speed 13 mph    
Max Gust Speed 20 mph    
Visibility 10 miles    
Events Rain , Thunderstorm    
Averages and records for this station are not official NWS values.
T = Trace of Precipitation, MM = Missing Value Source: NWS Daily Summary

Daily Weather History Graph

Daily Weather History Graph

Search for Another Location

Airport or City:

Trip Planner

Search our weather history database for the weather conditions in past years. The results will help you decide how hot, cold, wet, or windy it might be!

Date:

Astronomy

May. 11, 2014 Rise Set
Actual Time 5:41 AM CDT 8:08 PM CDT
Civil Twilight 5:09 AM CDT 8:40 PM CDT
Nautical Twilight 4:30 AM CDT 9:19 PM CDT
Astronomical Twilight 3:46 AM CDT 10:04 PM CDT
Moon 5:01 PM CDT (5/11) 3:50 AM CDT (5/11)
Length of Visible Light 15h 30m
Length of Day
14h 27m
Waxing Gibbous, 89% of the Moon is Illuminated
May 11
Waxing Gibbous
May 14
Full
May 21
Last Quarter
May 28
New
Jun 5
First Quarter

Hourly Weather History & Observations

Time (CDT) Temp. Dew Point Humidity Pressure Visibility Wind Dir Wind Speed Gust Speed Precip Events Conditions
12:15 AM 53.2 °F 45.5 °F 75% 29.92 in 10.0 mi ESE 9.2 mph - N/A   Clear
12:35 AM 53.2 °F 45.5 °F 75% 29.92 in 10.0 mi SE 10.4 mph - N/A   Clear
12:55 AM 54.9 °F 46.2 °F 73% 29.92 in 10.0 mi SE 11.5 mph - N/A   Clear
1:15 AM 55.8 °F 44.8 °F 67% 29.92 in 10.0 mi SE 11.5 mph - N/A   Scattered Clouds
1:35 AM 58.3 °F 45.3 °F 62% 29.93 in 10.0 mi SSE 10.4 mph - N/A   Scattered Clouds
1:55 AM 56.5 °F 43.7 °F 62% 29.93 in 10.0 mi SSE 10.4 mph - N/A   Scattered Clouds
2:15 AM 58.3 °F 44.6 °F 60% 29.93 in 10.0 mi SSE 11.5 mph - N/A   Scattered Clouds
2:35 AM 55.8 °F 44.2 °F 65% 29.93 in 10.0 mi SE 8.1 mph - N/A   Scattered Clouds
2:55 AM 55.8 °F 43.9 °F 64% 29.93 in 10.0 mi SE 6.9 mph - N/A   Clear
3:15 AM 55.8 °F 44.8 °F 67% 29.93 in 10.0 mi SE 8.1 mph - N/A   Clear
3:35 AM 53.6 °F 43.7 °F 69% 29.93 in 10.0 mi SSE 6.9 mph - N/A   Clear
3:55 AM 55.8 °F 45.5 °F 68% 29.92 in 10.0 mi SE 6.9 mph - N/A   Clear
4:15 AM 53.2 °F 44.2 °F 72% 29.92 in 10.0 mi SE 3.5 mph - N/A   Clear
4:35 AM 55.8 °F 45.5 °F 68% 29.93 in 10.0 mi Calm Calm - N/A   Clear
4:55 AM 51.8 °F 43.5 °F 73% 29.92 in 10.0 mi SE 4.6 mph - N/A   Clear
5:15 AM 50.9 °F 43.5 °F 76% 29.92 in 10.0 mi SE 3.5 mph - N/A   Clear
5:35 AM 50.9 °F 44.6 °F 79% 29.92 in 10.0 mi Calm Calm - N/A   Clear
5:55 AM 50.9 °F 45.1 °F 81% 29.93 in 10.0 mi SSE 4.6 mph - N/A   Clear
6:15 AM 51.1 °F 45.7 °F 82% 29.92 in 10.0 mi SE 5.8 mph - N/A   Clear
6:35 AM 53.6 °F 47.8 °F 81% 29.92 in 10.0 mi SE 8.1 mph - N/A   Clear
6:55 AM 55.8 °F 50.0 °F 81% 29.92 in 10.0 mi SE 9.2 mph - N/A   Clear
7:15 AM 57.7 °F 52.0 °F 81% 29.93 in 10.0 mi SSE 10.4 mph - N/A   Clear
7:35 AM 59.9 °F 53.6 °F 80% 29.94 in 10.0 mi SSE 10.4 mph - N/A   Clear
7:55 AM 61.0 °F 54.0 °F 78% 29.94 in 10.0 mi SSE 11.5 mph - N/A   Clear
8:15 AM 61.7 °F 54.3 °F 77% 29.94 in 10.0 mi South 9.2 mph - N/A   Clear
8:35 AM 62.1 °F 54.5 °F 76% 29.94 in 10.0 mi South 9.2 mph - N/A   Clear
8:55 AM 63.7 °F 55.4 °F 74% 29.95 in 10.0 mi South 9.2 mph - N/A   Clear
9:15 AM 64.4 °F 55.6 °F 73% 29.95 in 10.0 mi South 10.4 mph - N/A   Clear
9:35 AM 64.9 °F 55.6 °F 72% 29.95 in 10.0 mi South 9.2 mph - N/A   Clear
9:55 AM 67.6 °F 57.6 °F 70% 29.95 in 10.0 mi SSW 8.1 mph - N/A   Clear
10:15 AM 71.1 °F 59.4 °F 66% 29.94 in 10.0 mi SSW 4.6 mph - N/A   Clear
10:35 AM 71.1 °F 58.5 °F 64% 29.94 in 10.0 mi SSW 8.1 mph - N/A   Clear
10:55 AM 71.4 °F 58.6 °F 64% 29.94 in 10.0 mi SSW 9.2 mph - N/A   Clear
11:15 AM 72.5 °F 59.7 °F 64% 29.94 in 10.0 mi SSW 8.1 mph - N/A   Scattered Clouds
11:35 AM 73.6 °F 60.1 °F 63% 29.94 in 10.0 mi SSW 10.4 mph 16.1 mph N/A   Clear
11:55 AM 76.1 °F 62.1 °F 62% 29.92 in 10.0 mi South 9.2 mph - N/A   Clear
12:15 PM 76.1 °F 61.3 °F 60% 29.93 in 10.0 mi SSW 12.7 mph - N/A   Clear
12:35 PM 76.3 °F 61.2 °F 59% 29.93 in 10.0 mi South 10.4 mph - N/A   Clear
12:55 PM 76.1 °F 61.3 °F 60% 29.93 in 10.0 mi SW 12.7 mph 19.6 mph N/A   Scattered Clouds
1:15 PM 76.1 °F 61.9 °F 61% 29.93 in 10.0 mi SW 6.9 mph - N/A   Mostly Cloudy
1:35 PM 76.3 °F 61.2 °F 59% 29.92 in 10.0 mi WSW 10.4 mph - N/A   Scattered Clouds
1:55 PM 76.5 °F 61.5 °F 60% 29.92 in 10.0 mi WNW 6.9 mph - N/A   Clear
2:15 PM 76.1 °F 61.3 °F 60% 29.91 in 10.0 mi West 3.5 mph - N/A Thunderstorm Clear
2:35 PM 76.1 °F 62.1 °F 62% 29.91 in 10.0 mi WNW 4.6 mph - N/A Thunderstorm Thunderstorm
2:55 PM 76.1 °F 62.2 °F 62% 29.91 in 10.0 mi NW 5.8 mph - N/A   Scattered Clouds
3:15 PM 76.1 °F 63.0 °F 64% 29.92 in 10.0 mi West 5.8 mph - N/A Thunderstorm Mostly Cloudy
3:35 PM 71.1 °F 65.7 °F 83% 29.92 in 5.0 mi WSW 6.9 mph - 0.06 in Rain , Thunderstorm Light Thunderstorms and Rain
3:55 PM 70.7 °F 67.1 °F 88% 29.91 in 4.0 mi West 6.9 mph - 0.11 in Rain , Thunderstorm Light Thunderstorms and Rain
4:15 PM 71.1 °F 66.4 °F 85% 29.90 in 10.0 mi West 3.5 mph - N/A Thunderstorm Clear
4:35 PM 71.1 °F 66.4 °F 85% 29.85 in 10.0 mi SSE 5.8 mph - N/A Thunderstorm Unknown
4:55 PM 71.1 °F 66.0 °F 84% 29.87 in 10.0 mi Calm Calm - N/A   Clear
5:15 PM 71.1 °F 67.1 °F 87% 29.87 in 10.0 mi East 10.4 mph - N/A   Clear
5:35 PM 69.8 °F 64.8 °F 84% 29.87 in 10.0 mi East 11.5 mph - N/A Thunderstorm Clear
5:55 PM 68.5 °F 64.2 °F 86% 29.86 in 10.0 mi ESE 11.5 mph 17.3 mph N/A   Clear
6:15 PM 66.9 °F 63.0 °F 87% 29.85 in 10.0 mi ESE 6.9 mph - N/A   Clear
6:35 PM 66.9 °F 63.0 °F 87% 29.85 in 10.0 mi ESE 5.8 mph - N/A   Clear
6:55 PM 66.2 °F 62.4 °F 88% 29.84 in 10.0 mi SE 6.9 mph - N/A   Clear
7:15 PM 66.2 °F 62.1 °F 86% 29.85 in 10.0 mi ESE 4.6 mph - N/A   Clear
7:35 PM 65.3 °F 61.9 °F 89% 29.83 in 10.0 mi ENE 5.8 mph - N/A   Clear
7:55 PM 63.5 °F 59.0 °F 85% 29.82 in 10.0 mi East 8.1 mph - N/A   Clear
8:15 PM 63.5 °F 59.0 °F 85% 29.82 in 10.0 mi East 9.2 mph - N/A   Clear
8:35 PM 62.1 °F 58.3 °F 87% 29.83 in 10.0 mi East 9.2 mph - N/A   Clear
8:55 PM 60.8 °F 58.1 °F 91% 29.84 in 10.0 mi East 9.2 mph - N/A   Clear
9:15 PM 61.5 °F 58.5 °F 90% 29.86 in 10.0 mi East 8.1 mph - N/A   Clear
9:35 PM 60.8 °F 57.9 °F 90% 29.87 in 10.0 mi East 5.8 mph - N/A   Clear
9:55 PM 60.8 °F 58.3 °F 91% 29.89 in 10.0 mi East 4.6 mph - N/A   Scattered Clouds
10:15 PM 60.4 °F 58.1 °F 92% 29.89 in 10.0 mi East 4.6 mph - N/A   Scattered Clouds
10:35 PM 60.8 °F 58.6 °F 93% 29.90 in 10.0 mi ESE 4.6 mph - N/A   Clear
10:55 PM 59.0 °F 57.2 °F 94% 29.89 in 10.0 mi ESE 6.9 mph - N/A   Clear
11:15 PM 60.3 °F 58.5 °F 94% 29.90 in 7.0 mi ESE 5.8 mph - N/A   Scattered Clouds
11:35 PM 60.3 °F 58.5 °F 94% 29.89 in 10.0 mi SE 9.2 mph - N/A   Scattered Clouds
11:55 PM 61.0 °F 57.9 °F 90% 29.89 in 10.0 mi SE 10.4 mph - N/A   Clear